CUTE-1 (CO-55)

Last updated on Mon Dec 15 2025 00:03:16 GMT+0000 (Coordinated Universal Time)

1 27844U 03031E 25348.27613775 .00000507 00000+0 23886-3 0 9993 2 27844 98.6765 354.1593 0009710 9.0596 351.0757 14.24180797165355
UTC large
Height (km)
Speed (km/s)
/
Latitude / Longitude
Inclination (degrees)
Orbital Period (minutes)
Azimuth
Elevation
Range (km)
Doppler Factor

Next 0 passes for location: London (51.5072 / 0.1276)

Sorry there are no passes over London.